contact:dominique.lefevre@mio.osupytheas.fr, maurice.libes@osupytheas.fr, didier.mallarino@osupytheas.fr
Project:EMSO http://www.emso-fr.org/EMSO-France
Depth: 2436.0 m
Title:EMSO Ligure Ouest : Data MII capteur CSTAR
DateTime,Latitude,Longitude,Instrument_Serial,Reference_Counts,Signal_Counts,Corrected_Signal_raw_counts,Calculated_Beam_c_inverse_meters,Internal_thermistor_counts
DateTime,Latitude,Longitude,Instrument_Serial,Reference_Counts,Signal_Counts,Corrected_Signal_raw_counts,Calculated_Beam_c_inverse_meters,Internal_thermistor_counts
2021-01-22T00:02:33,42.805,6.029,CST-1368DR,5595,7826,15033,0.152,551
2021-01-22T00:05:35,42.805,6.029,CST-1368DR,5595,7825,15032,0.152,551
2021-01-22T00:08:36,42.805,6.029,CST-1368DR,5595,7825,15032,0.152,551
2021-01-22T00:11:38,42.805,6.029,CST-1368DR,5595,7826,15033,0.152,551
2021-01-22T00:14:40,42.805,6.029,CST-1368DR,5595,7826,15033,0.152,551
2021-01-22T00:17:41,42.805,6.029,CST-1368DR,5595,7826,15033,0.152,551
2021-01-22T00:20:43,42.805,6.029,CST-1368DR,5595,7824,15030,0.153,551
2021-01-22T00:23:44,42.805,6.029,CST-1368DR,5595,7825,15032,0.152,551
2021-01-22T00:26:46,42.805,6.029,CST-1368DR,5595,7825,15032,0.152,551
2021-01-22T00:29:47,42.805,6.029,CST-1368DR,5595,7825,15031,0.153,551
2021-01-22T00:32:49,42.805,6.029,CST-1368DR,5595,7825,15032,0.152,551
2021-01-22T00:35:51,42.805,6.029,CST-1368DR,5595,7824,15031,0.153,551
2021-01-22T00:38:52,42.805,6.029,CST-1368DR,5595,7824,15030,0.153,551
2021-01-22T00:41:54,42.805,6.029,CST-1368DR,5595,7825,15031,0.153,551
2021-01-22T00:44:55,42.805,6.029,CST-1368DR,5595,7824,15030,0.153,551
2021-01-22T00:47:57,42.805,6.029,CST-1368DR,5595,7824,15031,0.153,551
2021-01-22T00:50:59,42.805,6.029,CST-1368DR,5595,7825,15031,0.153,551
2021-01-22T00:54:00,42.805,6.029,CST-1368DR,5595,7824,15030,0.153,551
2021-01-22T00:57:02,42.805,6.029,CST-1368DR,5595,7824,15031,0.153,551
2021-01-22T01:00:03,42.805,6.029,CST-1368DR,5595,7824,15029,0.153,551
2021-01-22T01:03:05,42.805,6.029,CST-1368DR,5595,7824,15030,0.153,551
2021-01-22T01:06:06,42.805,6.029,CST-1368DR,5595,7825,15031,0.153,551
2021-01-22T01:09:08,42.805,6.029,CST-1368DR,5595,7824,15031,0.153,551
2021-01-22T01:12:10,42.805,6.029,CST-1368DR,5595,7825,15032,0.152,551
2021-01-22T01:15:11,42.805,6.029,CST-1368DR,5595,7824,15031,0.153,551
2021-01-22T01:18:13,42.805,6.029,CST-1368DR,5595,7824,15030,0.153,551
2021-01-22T01:21:14,42.805,6.029,CST-1368DR,5595,7824,15031,0.153,551
2021-01-22T01:24:16,42.805,6.029,CST-1368DR,5595,7825,15032,0.152,551
2021-01-22T01:27:18,42.805,6.029,CST-1368DR,5595,7825,15032,0.152,551
2021-01-22T01:30:19,42.805,6.029,CST-1368DR,5595,7825,15031,0.153,551
2021-01-22T01:33:21,42.805,6.029,CST-1368DR,5595,7824,15030,0.153,551
2021-01-22T01:36:22,42.805,6.029,CST-1368DR,5595,7823,15028,0.154,551
2021-01-22T01:39:24,42.805,6.029,CST-1368DR,5595,7824,15030,0.153,551
2021-01-22T01:42:25,42.805,6.029,CST-1368DR,5595,7825,15031,0.153,551
2021-01-22T01:45:27,42.805,6.029,CST-1368DR,5595,7825,15031,0.153,551
2021-01-22T01:48:29,42.805,6.029,CST-1368DR,5595,7823,15028,0.154,551
2021-01-22T01:51:30,42.805,6.029,CST-1368DR,5595,7824,15030,0.153,551
2021-01-22T01:54:32,42.805,6.029,CST-1368DR,5595,7824,15030,0.153,551
2021-01-22T01:57:33,42.805,6.029,CST-1368DR,5595,7825,15032,0.152,551
2021-01-22T02:00:35,42.805,6.029,CST-1368DR,5595,7825,15032,0.152,551
2021-01-22T02:03:36,42.805,6.029,CST-1368DR,5595,7825,15032,0.152,551
2021-01-22T02:06:38,42.805,6.029,CST-1368DR,5595,7824,15030,0.153,551
2021-01-22T02:09:40,42.805,6.029,CST-1368DR,5595,7825,15032,0.152,551
2021-01-22T02:12:41,42.805,6.029,CST-1368DR,5595,7825,15031,0.153,551
2021-01-22T02:15:43,42.805,6.029,CST-1368DR,5595,7825,15032,0.152,551
2021-01-22T02:18:44,42.805,6.029,CST-1368DR,5595,7824,15030,0.153,551
2021-01-22T02:21:46,42.805,6.029,CST-1368DR,5595,7825,15031,0.153,551
2021-01-22T02:24:48,42.805,6.029,CST-1368DR,5595,7824,15030,0.153,551
2021-01-22T02:27:49,42.805,6.029,CST-1368DR,5595,7825,15031,0.153,551
2021-01-22T02:30:51,42.805,6.029,CST-1368DR,5595,7825,15032,0.152,551
2021-01-22T02:33:52,42.805,6.029,CST-1368DR,5595,7825,15032,0.152,551
2021-01-22T02:36:54,42.805,6.029,CST-1368DR,5595,7824,15029,0.153,551
2021-01-22T02:39:55,42.805,6.029,CST-1368DR,5595,7824,15031,0.153,551
2021-01-22T02:42:57,42.805,6.029,CST-1368DR,5595,7824,15030,0.153,551
2021-01-22T02:45:59,42.805,6.029,CST-1368DR,5595,7824,15030,0.153,551
2021-01-22T02:49:00,42.805,6.029,CST-1368DR,5595,7822,15027,0.154,551
2021-01-22T02:52:02,42.805,6.029,CST-1368DR,5595,7825,15031,0.153,551
2021-01-22T02:55:03,42.805,6.029,CST-1368DR,5595,7824,15029,0.153,551
2021-01-22T02:58:05,42.805,6.029,CST-1368DR,5595,7822,15026,0.154,551
2021-01-22T03:01:06,42.805,6.029,CST-1368DR,5595,7824,15030,0.153,551
2021-01-22T03:04:08,42.805,6.029,CST-1368DR,5595,7824,15030,0.153,551
2021-01-22T03:07:10,42.805,6.029,CST-1368DR,5595,7824,15030,0.153,551
2021-01-22T03:10:11,42.805,6.029,CST-1368DR,5595,7824,15029,0.153,551
2021-01-22T03:13:13,42.805,6.029,CST-1368DR,5595,7824,15029,0.153,551
2021-01-22T03:16:14,42.805,6.029,CST-1368DR,5595,7824,15029,0.153,551
2021-01-22T03:19:16,42.805,6.029,CST-1368DR,5595,7824,15029,0.153,551
2021-01-22T03:22:18,42.805,6.029,CST-1368DR,5595,7823,15029,0.153,551
2021-01-22T03:25:19,42.805,6.029,CST-1368DR,5595,7822,15026,0.154,551
2021-01-22T03:28:21,42.805,6.029,CST-1368DR,5595,7824,15030,0.153,551
2021-01-22T03:31:22,42.805,6.029,CST-1368DR,5595,7824,15030,0.153,551
2021-01-22T03:34:24,42.805,6.029,CST-1368DR,5595,7824,15030,0.153,551
2021-01-22T03:37:25,42.805,6.029,CST-1368DR,5595,7823,15028,0.154,551
2021-01-22T03:40:27,42.805,6.029,CST-1368DR,5595,7824,15031,0.153,551
2021-01-22T03:43:29,42.805,6.029,CST-1368DR,5595,7825,15031,0.153,551
2021-01-22T03:46:30,42.805,6.029,CST-1368DR,5595,7823,15029,0.153,551
2021-01-22T03:49:32,42.805,6.029,CST-1368DR,5595,7823,15028,0.154,551
2021-01-22T03:52:33,42.805,6.029,CST-1368DR,5595,7824,15029,0.153,551
2021-01-22T03:55:35,42.805,6.029,CST-1368DR,5595,7822,15026,0.154,551
2021-01-22T03:58:37,42.805,6.029,CST-1368DR,5595,7823,15028,0.154,551
2021-01-22T04:01:38,42.805,6.029,CST-1368DR,5595,7824,15030,0.153,551
2021-01-22T04:04:40,42.805,6.029,CST-1368DR,5595,7823,15029,0.153,551
2021-01-22T04:07:41,42.805,6.029,CST-1368DR,5595,7824,15031,0.153,551
2021-01-22T04:10:43,42.805,6.029,CST-1368DR,5595,7824,15030,0.153,551
2021-01-22T04:13:44,42.805,6.029,CST-1368DR,5595,7823,15028,0.154,551
2021-01-22T04:16:46,42.805,6.029,CST-1368DR,5594,7824,15032,0.152,551
2021-01-22T04:19:48,42.805,6.029,CST-1368DR,5595,7823,15028,0.154,551
2021-01-22T04:22:49,42.805,6.029,CST-1368DR,5595,7824,15030,0.153,551
2021-01-22T04:25:51,42.805,6.029,CST-1368DR,5595,7824,15030,0.153,551
2021-01-22T04:28:52,42.805,6.029,CST-1368DR,5595,7822,15026,0.154,551
2021-01-22T04:31:54,42.805,6.029,CST-1368DR,5594,7823,15031,0.153,551
2021-01-22T04:34:55,42.805,6.029,CST-1368DR,5594,7824,15033,0.152,551
2021-01-22T04:37:57,42.805,6.029,CST-1368DR,5595,7823,15028,0.154,551
2021-01-22T04:40:59,42.805,6.029,CST-1368DR,5595,7823,15029,0.153,551
2021-01-22T04:44:00,42.805,6.029,CST-1368DR,5595,7822,15027,0.154,551
2021-01-22T04:47:02,42.805,6.029,CST-1368DR,5594,7824,15032,0.152,551
2021-01-22T04:50:03,42.805,6.029,CST-1368DR,5594,7824,15032,0.152,551
2021-01-22T04:53:05,42.805,6.029,CST-1368DR,5594,7823,15030,0.153,551
2021-01-22T04:56:06,42.805,6.029,CST-1368DR,5594,7814,15012,0.158,550
2021-01-22T04:59:08,42.805,6.029,CST-1368DR,5594,7821,15026,0.154,551
2021-01-22T05:02:10,42.805,6.029,CST-1368DR,5594,7822,15028,0.154,551
2021-01-22T05:05:11,42.805,6.029,CST-1368DR,5594,7823,15031,0.153,551
2021-01-22T05:08:13,42.805,6.029,CST-1368DR,5594,7822,15028,0.154,550
2021-01-22T05:11:14,42.805,6.029,CST-1368DR,5594,7822,15028,0.154,551
2021-01-22T05:14:16,42.805,6.029,CST-1368DR,5595,7824,15030,0.153,551
2021-01-22T05:17:18,42.805,6.029,CST-1368DR,5594,7823,15031,0.153,551
2021-01-22T05:20:19,42.805,6.029,CST-1368DR,5594,7823,15031,0.153,551
2021-01-22T05:23:21,42.805,6.029,CST-1368DR,5594,7824,15032,0.152,551
2021-01-22T05:26:22,42.805,6.029,CST-1368DR,5594,7823,15031,0.153,551
2021-01-22T05:29:24,42.805,6.029,CST-1368DR,5594,7822,15029,0.153,551
2021-01-22T05:32:25,42.805,6.029,CST-1368DR,5594,7824,15032,0.152,551
2021-01-22T05:35:27,42.805,6.029,CST-1368DR,5595,7822,15026,0.154,551
2021-01-22T05:38:29,42.805,6.029,CST-1368DR,5594,7823,15031,0.153,551
2021-01-22T05:41:30,42.805,6.029,CST-1368DR,5594,7824,15032,0.152,551
2021-01-22T05:44:32,42.805,6.029,CST-1368DR,5594,7823,15031,0.153,550
2021-01-22T05:47:33,42.805,6.029,CST-1368DR,5594,7824,15032,0.152,551
2021-01-22T05:50:35,42.805,6.029,CST-1368DR,5594,7821,15027,0.154,551
2021-01-22T05:53:37,42.805,6.029,CST-1368DR,5594,7823,15030,0.153,551
2021-01-22T05:56:38,42.805,6.029,CST-1368DR,5594,7823,15031,0.153,551
2021-01-22T05:59:40,42.805,6.029,CST-1368DR,5594,7823,15031,0.153,551
2021-01-22T06:02:41,42.805,6.029,CST-1368DR,5594,7821,15026,0.154,551
2021-01-22T06:05:43,42.805,6.029,CST-1368DR,5594,7822,15029,0.153,551
2021-01-22T06:08:44,42.805,6.029,CST-1368DR,5594,7823,15031,0.153,551
2021-01-22T06:11:46,42.805,6.029,CST-1368DR,5594,7823,15031,0.153,551
2021-01-22T06:14:48,42.805,6.029,CST-1368DR,5594,7823,15031,0.153,551
2021-01-22T06:17:49,42.805,6.029,CST-1368DR,5594,7822,15028,0.154,551
2021-01-22T06:20:51,42.805,6.029,CST-1368DR,5594,7822,15029,0.153,551
2021-01-22T06:23:52,42.805,6.029,CST-1368DR,5594,7821,15027,0.154,551
2021-01-22T06:26:54,42.805,6.029,CST-1368DR,5594,7822,15028,0.154,551
2021-01-22T06:29:55,42.805,6.029,CST-1368DR,5594,7823,15030,0.153,551
2021-01-22T06:32:57,42.805,6.029,CST-1368DR,5594,7824,15032,0.152,551
2021-01-22T06:35:59,42.805,6.029,CST-1368DR,5594,7823,15031,0.153,551
2021-01-22T06:39:00,42.805,6.029,CST-1368DR,5594,7821,15027,0.154,551
2021-01-22T06:42:02,42.805,6.029,CST-1368DR,5594,7823,15031,0.153,551
2021-01-22T06:45:03,42.805,6.029,CST-1368DR,5594,7823,15031,0.153,551
2021-01-22T06:48:05,42.805,6.029,CST-1368DR,5594,7822,15028,0.154,551
2021-01-22T06:51:06,42.805,6.029,CST-1368DR,5594,7822,15029,0.153,551
2021-01-22T06:54:08,42.805,6.029,CST-1368DR,5594,7822,15029,0.153,551
2021-01-22T06:57:10,42.805,6.029,CST-1368DR,5594,7823,15031,0.153,551
2021-01-22T07:00:11,42.805,6.029,CST-1368DR,5594,7823,15031,0.153,551
2021-01-22T07:03:13,42.805,6.029,CST-1368DR,5594,7823,15030,0.153,551
2021-01-22T07:06:14,42.805,6.029,CST-1368DR,5594,7822,15029,0.153,551
2021-01-22T07:09:16,42.805,6.029,CST-1368DR,5594,7822,15028,0.154,551
2021-01-22T07:12:18,42.805,6.029,CST-1368DR,5594,7823,15031,0.153,551
2021-01-22T07:15:19,42.805,6.029,CST-1368DR,5594,7823,15031,0.153,551
2021-01-22T07:18:21,42.805,6.029,CST-1368DR,5594,7821,15027,0.154,551
2021-01-22T07:21:22,42.805,6.029,CST-1368DR,5594,7823,15031,0.153,551
2021-01-22T07:24:24,42.805,6.029,CST-1368DR,5594,7822,15029,0.153,551
2021-01-22T07:27:25,42.805,6.029,CST-1368DR,5594,7822,15029,0.153,551
2021-01-22T07:30:27,42.805,6.029,CST-1368DR,5594,7822,15029,0.153,551
2021-01-22T07:33:29,42.805,6.029,CST-1368DR,5594,7823,15030,0.153,551
2021-01-22T07:36:30,42.805,6.029,CST-1368DR,5594,7823,15030,0.153,551
2021-01-22T07:39:32,42.805,6.029,CST-1368DR,5594,7821,15027,0.154,551
2021-01-22T07:42:33,42.805,6.029,CST-1368DR,5594,7823,15031,0.153,551
2021-01-22T07:45:35,42.805,6.029,CST-1368DR,5594,7822,15029,0.153,551
2021-01-22T07:48:37,42.805,6.029,CST-1368DR,5594,7823,15030,0.153,551
2021-01-22T07:51:38,42.805,6.029,CST-1368DR,5594,7824,15032,0.152,551
2021-01-22T07:54:40,42.805,6.029,CST-1368DR,5594,7821,15026,0.154,551
2021-01-22T07:57:41,42.805,6.029,CST-1368DR,5594,7823,15031,0.153,551
2021-01-22T08:00:43,42.805,6.029,CST-1368DR,5594,7822,15029,0.153,551
2021-01-22T08:03:44,42.805,6.029,CST-1368DR,5594,7823,15031,0.153,551
2021-01-22T08:06:46,42.805,6.029,CST-1368DR,5594,7822,15028,0.154,551
2021-01-22T08:09:48,42.805,6.029,CST-1368DR,5594,7822,15029,0.153,551
2021-01-22T08:12:49,42.805,6.029,CST-1368DR,5594,7823,15031,0.153,551
2021-01-22T08:15:51,42.805,6.029,CST-1368DR,5594,7824,15032,0.152,551
2021-01-22T08:18:52,42.805,6.029,CST-1368DR,5594,7824,15032,0.152,551
2021-01-22T08:21:54,42.805,6.029,CST-1368DR,5594,7823,15031,0.153,551
2021-01-22T08:24:55,42.805,6.029,CST-1368DR,5594,7824,15032,0.152,551
2021-01-22T08:27:57,42.805,6.029,CST-1368DR,5594,7822,15028,0.154,551
2021-01-22T08:30:59,42.805,6.029,CST-1368DR,5594,7820,15024,0.155,551
2021-01-22T08:34:00,42.805,6.029,CST-1368DR,5594,7822,15029,0.153,551
2021-01-22T08:37:02,42.805,6.029,CST-1368DR,5594,7824,15032,0.152,550
2021-01-22T08:40:03,42.805,6.029,CST-1368DR,5594,7822,15029,0.153,551
2021-01-22T08:43:05,42.805,6.029,CST-1368DR,5594,7823,15031,0.153,551
2021-01-22T08:46:07,42.805,6.029,CST-1368DR,5594,7822,15029,0.153,551
2021-01-22T08:49:08,42.805,6.029,CST-1368DR,5594,7824,15032,0.152,551
2021-01-22T08:52:10,42.805,6.029,CST-1368DR,5594,7824,15032,0.152,551
2021-01-22T08:55:11,42.805,6.029,CST-1368DR,5594,7823,15030,0.153,551
2021-01-22T08:58:13,42.805,6.029,CST-1368DR,5594,7823,15031,0.153,551
2021-01-22T09:01:14,42.805,6.029,CST-1368DR,5594,7822,15029,0.153,551
2021-01-22T09:04:16,42.805,6.029,CST-1368DR,5594,7824,15032,0.152,551
2021-01-22T09:07:18,42.805,6.029,CST-1368DR,5594,7824,15032,0.152,551
2021-01-22T09:10:19,42.805,6.029,CST-1368DR,5594,7823,15031,0.153,551
2021-01-22T09:13:21,42.805,6.029,CST-1368DR,5594,7824,15032,0.152,551
2021-01-22T09:16:22,42.805,6.029,CST-1368DR,5594,7823,15031,0.153,551
2021-01-22T09:19:24,42.805,6.029,CST-1368DR,5594,7823,15031,0.153,551
2021-01-22T09:22:25,42.805,6.029,CST-1368DR,5594,7823,15030,0.153,551
2021-01-22T09:25:27,42.805,6.029,CST-1368DR,5594,7824,15033,0.152,551
2021-01-22T09:28:29,42.805,6.029,CST-1368DR,5594,7825,15034,0.152,551
2021-01-22T09:31:30,42.805,6.029,CST-1368DR,5594,7824,15033,0.152,551
2021-01-22T09:34:32,42.805,6.029,CST-1368DR,5594,7824,15033,0.152,551
2021-01-22T09:37:33,42.805,6.029,CST-1368DR,5594,7824,15033,0.152,551
2021-01-22T09:40:35,42.805,6.029,CST-1368DR,5594,7825,15034,0.152,551
2021-01-22T09:43:37,42.805,6.029,CST-1368DR,5594,7823,15031,0.153,551
2021-01-22T09:46:38,42.805,6.029,CST-1368DR,5594,7825,15035,0.152,551
2021-01-22T09:49:40,42.805,6.029,CST-1368DR,5594,7825,15034,0.152,551
2021-01-22T09:52:41,42.805,6.029,CST-1368DR,5594,7825,15034,0.152,551
2021-01-22T09:55:43,42.805,6.029,CST-1368DR,5594,7825,15034,0.152,551
2021-01-22T09:58:44,42.805,6.029,CST-1368DR,5594,7826,15036,0.151,551
2021-01-22T10:01:46,42.805,6.029,CST-1368DR,5594,7825,15034,0.152,551
2021-01-22T10:04:48,42.805,6.029,CST-1368DR,5594,7824,15032,0.152,551
2021-01-22T10:07:49,42.805,6.029,CST-1368DR,5594,7825,15034,0.152,551
2021-01-22T10:10:51,42.805,6.029,CST-1368DR,5594,7824,15033,0.152,551
2021-01-22T10:13:52,42.805,6.029,CST-1368DR,5594,7825,15035,0.152,551
2021-01-22T10:16:54,42.805,6.029,CST-1368DR,5594,7825,15034,0.152,551
2021-01-22T10:19:55,42.805,6.029,CST-1368DR,5594,7825,15035,0.152,551
2021-01-22T10:22:57,42.805,6.029,CST-1368DR,5594,7825,15034,0.152,551
2021-01-22T10:25:59,42.805,6.029,CST-1368DR,5594,7825,15034,0.152,551
2021-01-22T10:29:00,42.805,6.029,CST-1368DR,5594,7825,15034,0.152,551
2021-01-22T10:32:02,42.805,6.029,CST-1368DR,5594,7825,15034,0.152,551
2021-01-22T10:35:03,42.805,6.029,CST-1368DR,5594,7825,15034,0.152,551
2021-01-22T10:38:05,42.805,6.029,CST-1368DR,5594,7825,15034,0.152,551
2021-01-22T10:41:07,42.805,6.029,CST-1368DR,5594,7825,15034,0.152,551
2021-01-22T10:44:08,42.805,6.029,CST-1368DR,5594,7825,15034,0.152,551
2021-01-22T10:47:10,42.805,6.029,CST-1368DR,5594,7825,15035,0.152,551
2021-01-22T10:50:11,42.805,6.029,CST-1368DR,5594,7825,15034,0.152,551
2021-01-22T10:53:13,42.805,6.029,CST-1368DR,5594,7823,15031,0.153,551
2021-01-22T10:56:14,42.805,6.029,CST-1368DR,5594,7825,15035,0.152,551
2021-01-22T10:59:16,42.805,6.029,CST-1368DR,5594,7824,15033,0.152,551
2021-01-22T11:02:18,42.805,6.029,CST-1368DR,5594,7825,15034,0.152,551
2021-01-22T11:05:19,42.805,6.029,CST-1368DR,5594,7825,15035,0.152,551
2021-01-22T11:08:21,42.805,6.029,CST-1368DR,5594,7825,15034,0.152,551
2021-01-22T11:11:22,42.805,6.029,CST-1368DR,5594,7825,15034,0.152,551
2021-01-22T11:14:24,42.805,6.029,CST-1368DR,5594,7825,15034,0.152,551
2021-01-22T11:17:26,42.805,6.029,CST-1368DR,5594,7825,15035,0.152,551
2021-01-22T11:20:27,42.805,6.029,CST-1368DR,5594,7825,15034,0.152,551
2021-01-22T11:23:29,42.805,6.029,CST-1368DR,5594,7825,15035,0.152,551
2021-01-22T11:26:30,42.805,6.029,CST-1368DR,5594,7825,15035,0.152,551
2021-01-22T11:29:32,42.805,6.029,CST-1368DR,5594,7825,15034,0.152,551
2021-01-22T11:32:33,42.805,6.029,CST-1368DR,5594,7824,15032,0.152,551
2021-01-22T11:35:35,42.805,6.029,CST-1368DR,5594,7825,15034,0.152,551
2021-01-22T11:38:37,42.805,6.029,CST-1368DR,5594,7825,15035,0.152,551
2021-01-22T11:41:38,42.805,6.029,CST-1368DR,5594,7824,15033,0.152,551
2021-01-22T11:44:40,42.805,6.029,CST-1368DR,5594,7822,15028,0.154,551
2021-01-22T11:47:41,42.805,6.029,CST-1368DR,5594,7825,15035,0.152,550
2021-01-22T11:50:43,42.805,6.029,CST-1368DR,5594,7825,15035,0.152,551
2021-01-22T11:53:44,42.805,6.029,CST-1368DR,5594,7825,15035,0.152,551
2021-01-22T11:56:46,42.805,6.029,CST-1368DR,5594,7825,15035,0.152,551
2021-01-22T11:59:48,42.805,6.029,CST-1368DR,5594,7825,15035,0.152,551
2021-01-22T12:02:49,42.805,6.029,CST-1368DR,5593,7825,15038,0.151,551
2021-01-22T12:05:51,42.805,6.029,CST-1368DR,5594,7825,15034,0.152,551
2021-01-22T12:08:52,42.805,6.029,CST-1368DR,5594,7826,15036,0.151,551
2021-01-22T12:11:54,42.805,6.029,CST-1368DR,5594,7826,15036,0.151,551
2021-01-22T12:14:56,42.805,6.029,CST-1368DR,5594,7826,15036,0.151,551
2021-01-22T12:17:57,42.805,6.029,CST-1368DR,5594,7825,15035,0.152,551
2021-01-22T12:20:59,42.805,6.029,CST-1368DR,5594,7825,15034,0.152,551
2021-01-22T12:24:00,42.805,6.029,CST-1368DR,5594,7824,15033,0.152,551
2021-01-22T12:27:02,42.805,6.029,CST-1368DR,5594,7826,15036,0.151,551
2021-01-22T12:30:03,42.805,6.029,CST-1368DR,5594,7825,15035,0.152,551
2021-01-22T12:33:05,42.805,6.029,CST-1368DR,5594,7825,15034,0.152,551
2021-01-22T12:36:07,42.805,6.029,CST-1368DR,5594,7825,15034,0.152,551
2021-01-22T12:39:08,42.805,6.029,CST-1368DR,5594,7826,15036,0.151,551
2021-01-22T12:42:10,42.805,6.029,CST-1368DR,5594,7825,15034,0.152,551
2021-01-22T12:45:11,42.805,6.029,CST-1368DR,5594,7826,15036,0.151,551
2021-01-22T12:48:13,42.805,6.029,CST-1368DR,5594,7826,15036,0.151,551
2021-01-22T12:51:15,42.805,6.029,CST-1368DR,5594,7825,15034,0.152,551
2021-01-22T12:54:16,42.805,6.029,CST-1368DR,5594,7825,15035,0.152,551
2021-01-22T12:57:18,42.805,6.029,CST-1368DR,5594,7825,15035,0.152,551
2021-01-22T13:00:19,42.805,6.029,CST-1368DR,5594,7825,15035,0.152,551
2021-01-22T13:03:21,42.805,6.029,CST-1368DR,5594,7825,15034,0.152,551
2021-01-22T13:06:22,42.805,6.029,CST-1368DR,5594,7824,15033,0.152,551
2021-01-22T13:09:24,42.805,6.029,CST-1368DR,5594,7825,15034,0.152,551
2021-01-22T13:12:26,42.805,6.029,CST-1368DR,5593,7826,15038,0.151,551
2021-01-22T13:15:27,42.805,6.029,CST-1368DR,5594,7826,15036,0.151,551
2021-01-22T13:18:29,42.805,6.029,CST-1368DR,5594,7825,15035,0.152,551
2021-01-22T13:21:30,42.805,6.029,CST-1368DR,5594,7825,15034,0.152,551
2021-01-22T13:24:32,42.805,6.029,CST-1368DR,5593,7826,15038,0.151,551
2021-01-22T13:27:34,42.805,6.029,CST-1368DR,5594,7825,15035,0.152,551
2021-01-22T13:30:35,42.805,6.029,CST-1368DR,5593,7826,15039,0.151,551
2021-01-22T13:33:37,42.805,6.029,CST-1368DR,5593,7825,15037,0.151,551
2021-01-22T13:36:38,42.805,6.029,CST-1368DR,5593,7825,15038,0.151,551
2021-01-22T13:39:40,42.805,6.029,CST-1368DR,5593,7826,15038,0.151,551
2021-01-22T13:42:41,42.805,6.029,CST-1368DR,5593,7825,15037,0.151,551
2021-01-22T13:45:43,42.805,6.029,CST-1368DR,5593,7825,15037,0.151,551
2021-01-22T13:48:45,42.805,6.029,CST-1368DR,5593,7826,15038,0.151,551
2021-01-22T13:51:46,42.805,6.029,CST-1368DR,5593,7825,15038,0.151,551
2021-01-22T13:54:48,42.805,6.029,CST-1368DR,5593,7825,15038,0.151,551
2021-01-22T13:57:49,42.805,6.029,CST-1368DR,5593,7825,15038,0.151,551
2021-01-22T14:00:51,42.805,6.029,CST-1368DR,5593,7826,15039,0.151,551
2021-01-22T14:03:52,42.805,6.029,CST-1368DR,5594,7826,15036,0.151,551
2021-01-22T14:06:54,42.805,6.029,CST-1368DR,5593,7826,15039,0.151,551
2021-01-22T14:09:56,42.805,6.029,CST-1368DR,5594,7826,15036,0.151,551
2021-01-22T14:12:57,42.805,6.029,CST-1368DR,5593,7826,15039,0.151,551
2021-01-22T14:15:59,42.805,6.029,CST-1368DR,5593,7826,15038,0.151,551
2021-01-22T14:19:00,42.805,6.029,CST-1368DR,5594,7825,15035,0.152,551
2021-01-22T14:22:02,42.805,6.029,CST-1368DR,5593,7826,15039,0.151,551
2021-01-22T14:25:03,42.805,6.029,CST-1368DR,5594,7827,15037,0.151,551
2021-01-22T14:28:05,42.805,6.029,CST-1368DR,5594,7826,15036,0.151,551
2021-01-22T14:31:07,42.805,6.029,CST-1368DR,5593,7826,15039,0.151,551
2021-01-22T14:34:08,42.805,6.029,CST-1368DR,5593,7826,15039,0.151,551
2021-01-22T14:37:10,42.805,6.029,CST-1368DR,5593,7826,15038,0.151,551
2021-01-22T14:40:11,42.805,6.029,CST-1368DR,5593,7826,15038,0.151,551
2021-01-22T14:43:13,42.805,6.029,CST-1368DR,5593,7826,15039,0.151,551
2021-01-22T14:46:15,42.805,6.029,CST-1368DR,5593,7825,15038,0.151,551
2021-01-22T14:49:16,42.805,6.029,CST-1368DR,5593,7826,15039,0.151,551
2021-01-22T14:52:18,42.805,6.029,CST-1368DR,5593,7826,15038,0.151,551
2021-01-22T14:55:19,42.805,6.029,CST-1368DR,5593,7826,15039,0.151,551
2021-01-22T14:58:21,42.805,6.029,CST-1368DR,5593,7825,15038,0.151,551
2021-01-22T15:01:22,42.805,6.029,CST-1368DR,5593,7826,15038,0.151,551
2021-01-22T15:04:24,42.805,6.029,CST-1368DR,5593,7825,15037,0.151,551
2021-01-22T15:07:26,42.805,6.029,CST-1368DR,5593,7825,15038,0.151,551
2021-01-22T15:10:27,42.805,6.029,CST-1368DR,5593,7825,15037,0.151,551
2021-01-22T15:13:29,42.805,6.029,CST-1368DR,5593,7824,15036,0.151,551
2021-01-22T15:16:30,42.805,6.029,CST-1368DR,5593,7825,15038,0.151,551
2021-01-22T15:19:32,42.805,6.029,CST-1368DR,5593,7825,15036,0.151,551
2021-01-22T15:22:34,42.805,6.029,CST-1368DR,5593,7825,15038,0.151,551
2021-01-22T15:25:35,42.805,6.029,CST-1368DR,5593,7825,15037,0.151,551
2021-01-22T15:28:37,42.805,6.029,CST-1368DR,5593,7824,15035,0.152,551
2021-01-22T15:31:38,42.805,6.029,CST-1368DR,5593,7825,15038,0.151,551
2021-01-22T15:34:40,42.805,6.029,CST-1368DR,5593,7825,15038,0.151,551
2021-01-22T15:37:41,42.805,6.029,CST-1368DR,5593,7825,15037,0.151,551
2021-01-22T15:40:43,42.805,6.029,CST-1368DR,5593,7825,15036,0.151,551
2021-01-22T15:43:45,42.805,6.029,CST-1368DR,5593,7825,15038,0.151,551
2021-01-22T15:46:46,42.805,6.029,CST-1368DR,5593,7824,15035,0.152,551
2021-01-22T15:49:48,42.805,6.029,CST-1368DR,5593,7825,15036,0.151,551
2021-01-22T15:52:49,42.805,6.029,CST-1368DR,5593,7825,15037,0.151,551
2021-01-22T15:55:51,42.805,6.029,CST-1368DR,5593,7825,15038,0.151,551
2021-01-22T15:58:52,42.805,6.029,CST-1368DR,5593,7825,15036,0.151,551
2021-01-22T16:01:54,42.805,6.029,CST-1368DR,5593,7825,15037,0.151,550
2021-01-22T16:04:56,42.805,6.029,CST-1368DR,5593,7824,15034,0.152,551
2021-01-22T16:07:57,42.805,6.029,CST-1368DR,5593,7824,15036,0.151,551
2021-01-22T16:10:59,42.805,6.029,CST-1368DR,5593,7824,15036,0.151,551
2021-01-22T16:14:00,42.805,6.029,CST-1368DR,5593,7825,15037,0.151,551
2021-01-22T16:17:02,42.805,6.029,CST-1368DR,5593,7824,15035,0.152,551
2021-01-22T16:20:04,42.805,6.029,CST-1368DR,5593,7824,15034,0.152,551
2021-01-22T16:23:05,42.805,6.029,CST-1368DR,5593,7824,15035,0.152,551
2021-01-22T16:26:07,42.805,6.029,CST-1368DR,5593,7823,15033,0.152,551
2021-01-22T16:29:08,42.805,6.029,CST-1368DR,5593,7825,15036,0.151,551
2021-01-22T16:32:10,42.805,6.029,CST-1368DR,5593,7824,15036,0.151,551
2021-01-22T16:35:11,42.805,6.029,CST-1368DR,5593,7823,15033,0.152,551
2021-01-22T16:38:13,42.805,6.029,CST-1368DR,5593,7824,15035,0.152,551
2021-01-22T16:41:15,42.805,6.029,CST-1368DR,5593,7825,15036,0.151,551
2021-01-22T16:44:16,42.805,6.029,CST-1368DR,5593,7823,15033,0.152,551
2021-01-22T16:47:18,42.805,6.029,CST-1368DR,5593,7824,15034,0.152,551
2021-01-22T16:50:19,42.805,6.029,CST-1368DR,5593,7824,15035,0.152,551
2021-01-22T16:53:21,42.805,6.029,CST-1368DR,5593,7823,15034,0.152,551